User: anonymous   Login
Location: Caltech
(34.1382°N, 118.1253°W)
Time: 04:27:23
(UTC-08:00)
Language:

TITAN 4B R/B - Orbit

View from above orbital plane
View from above orbital plane
View from above satellite
View from above satellite

Ground track
Ground track

The orbit data is extracted from the following two-line orbital elements,

1 28647U 05016B   15028.72390700 0.00002300  00000-0  14206-3 0    07
2 28647  56.9986 304.0645 0137488 198.9158 161.0841 15.01822249    01
Epoch (UTC): 28 January 2015 17:22:25
Eccentricity: 0.0137488
inclination: 56.9986°
perigee height: 466 km
apogee height: 656 km
right ascension of ascending node: 304.0645°
argument of perigee: 198.9158°
revolutions per day: 15.01822249
mean anomaly at epoch: 161.0841°
orbit number at epoch: 0

The dashed part of the orbit path shows where the satellite is in the earth's shadow,  

DLR